When you browse on this site, cookies collect data to enhance your experience and personalize the content and advertising you see.
Visit our Privacy Policy to learn more. By continuing to use the site, you agree to this use of cookies and data.
  • In Spain
  • List of Countries
  • For 7 days
  • Water Temperature
  • Weather Map
  • Weather Widgets
  • user-avatar
    Login

    Hourly Weather Wlora

    Today, 3 April, Friday

    Time Temperature Precipitation Wind Pressure Humidity
    00:00 +7°C° 0 mm 2 mps 760 mmHg 83%
    01:00 +7°C° 0 mm 2 mps 760 mmHg 83%
    02:00 +7°C° 0 mm 2 mps 760 mmHg 83%
    03:00 +7°C° 0 mm 2 mps 759 mmHg 82%
    04:00 +7°C° 0 mm 3 mps 759 mmHg 81%
    05:00 +8°C° 0 mm 3 mps 759 mmHg 79%
    06:00 +9°C° 0 mm 2 mps 759 mmHg 77%
    07:00 +10°C° 0 mm 2 mps 759 mmHg 75%
    08:00 +12°C° 0 mm 2 mps 759 mmHg 69%
    09:00 +14°C° 0 mm 2 mps 760 mmHg 64%
    10:00 +15°C° 0 mm 2 mps 760 mmHg 58%
    11:00 +14°C° 0.1 mm 3 mps 760 mmHg 61%
    12:00 +14°C° 0.1 mm 3 mps 760 mmHg 63%
    13:00 +14°C° 0.1 mm 3 mps 760 mmHg 66%
    14:00 +13°C° 0.5 mm 3 mps 759 mmHg 73%
    15:00 +13°C° 0.5 mm 2 mps 759 mmHg 80%
    16:00 +13°C° 0.5 mm 1 mps 759 mmHg 88%
    17:00 +12°C° 0.5 mm 2 mps 759 mmHg 89%
    18:00 +12°C° 0.5 mm 2 mps 759 mmHg 90%
    19:00 +11°C° 0.5 mm 3 mps 759 mmHg 92%
    20:00 +11°C° 0.1 mm 3 mps 759 mmHg 91%
    21:00 +11°C° 0.1 mm 4 mps 759 mmHg 90%
    22:00 +10°C° 0.1 mm 5 mps 759 mmHg 89%
    23:00 +10°C° 0 mm 5 mps 759 mmHg 88%

    Tomorrow, 4 April, Saturday

    Time Temperature Precipitation Wind Pressure Humidity
    00:00 +10°C° 0 mm 6 mps 759 mmHg 88%
    01:00 +10°C° 0 mm 6 mps 759 mmHg 87%
    02:00 +9°C° 0 mm 6 mps 758 mmHg 87%
    03:00 +9°C° 0 mm 6 mps 758 mmHg 87%
    04:00 +9°C° 0 mm 6 mps 758 mmHg 88%
    05:00 +9°C° 0 mm 7 mps 758 mmHg 85%
    06:00 +10°C° 0 mm 7 mps 757 mmHg 83%
    07:00 +11°C° 0 mm 7 mps 757 mmHg 81%
    08:00 +12°C° 0 mm 7 mps 757 mmHg 75%
    09:00 +15°C° 0 mm 7 mps 757 mmHg 69%
    10:00 +16°C° 0 mm 7 mps 757 mmHg 63%
    11:00 +17°C° 0 mm 7 mps 757 mmHg 61%
    12:00 +17°C° 0 mm 7 mps 757 mmHg 58%
    13:00 +18°C° 0 mm 8 mps 757 mmHg 55%
    14:00 +17°C° 0 mm 7 mps 757 mmHg 58%
    15:00 +16°C° 0 mm 7 mps 757 mmHg 61%
    16:00 +15°C° 0 mm 7 mps 756 mmHg 63%
    17:00 +14°C° 0 mm 6 mps 757 mmHg 65%
    18:00 +13°C° 0 mm 5 mps 757 mmHg 67%
    19:00 +13°C° 0 mm 4 mps 757 mmHg 69%
    20:00 +12°C° 0 mm 4 mps 757 mmHg 70%
    21:00 +12°C° 0 mm 5 mps 758 mmHg 72%
    22:00 +12°C° 0 mm 5 mps 758 mmHg 73%
    23:00 +10°C° 0 mm 5 mps 758 mmHg 74%

    Day after tomorrow, 5 April, Sunday

    Time Temperature Precipitation Wind Pressure Humidity
    00:00 +10°C° 0 mm 5 mps 758 mmHg 74%
    01:00 +10°C° 0 mm 5 mps 758 mmHg 75%
    02:00 +10°C° 0 mm 5 mps 758 mmHg 75%
    03:00 +10°C° 0 mm 5 mps 758 mmHg 75%
    04:00 +10°C° 0 mm 5 mps 758 mmHg 75%
    05:00 +12°C° 0 mm 5 mps 758 mmHg 74%
    06:00 +13°C° 0 mm 6 mps 758 mmHg 74%
    07:00 +13°C° 0 mm 6 mps 758 mmHg 74%
    08:00 +15°C° 0 mm 5 mps 759 mmHg 69%
    09:00 +16°C° 0 mm 5 mps 759 mmHg 63%
    10:00 +17°C° 0 mm 5 mps 760 mmHg 58%
    11:00 +19°C° 0 mm 5 mps 760 mmHg 58%
    12:00 +19°C° 0 mm 5 mps 760 mmHg 57%
    13:00 +19°C° 0 mm 5 mps 760 mmHg 57%
    14:00 +17°C° 0 mm 5 mps 760 mmHg 57%
    15:00 +18°C° 0 mm 4 mps 760 mmHg 57%
    16:00 +18°C° 0 mm 4 mps 761 mmHg 57%
    17:00 +17°C° 0 mm 4 mps 761 mmHg 60%
    18:00 +15°C° 0 mm 4 mps 762 mmHg 62%
    19:00 +14°C° 0 mm 4 mps 762 mmHg 65%
    20:00 +14°C° 0 mm 4 mps 763 mmHg 65%
    21:00 +13°C° 0 mm 4 mps 763 mmHg 64%
    22:00 +13°C° 0 mm 4 mps 764 mmHg 64%
    23:00 +13°C° 0 mm 5 mps 764 mmHg 64%

    6 April, Monday

    Time Temperature Precipitation Wind Pressure Humidity
    00:00 +12°C° 0 mm 5 mps 764 mmHg 63%
    01:00 +11°C° 0 mm 6 mps 765 mmHg 63%
    02:00 +12°C° 0.1 mm 5 mps 765 mmHg 65%
    03:00 +10°C° 0.1 mm 5 mps 765 mmHg 67%
    04:00 +11°C° 0.1 mm 4 mps 765 mmHg 69%
    05:00 +11°C° 0.1 mm 4 mps 766 mmHg 68%
    06:00 +12°C° 0.1 mm 4 mps 766 mmHg 67%
    07:00 +12°C° 0.1 mm 4 mps 766 mmHg 66%
    08:00 +13°C° 0 mm 4 mps 767 mmHg 60%
    09:00 +15°C° 0 mm 4 mps 767 mmHg 53%
    10:00 +17°C° 0 mm 3 mps 767 mmHg 46%
    11:00 +17°C° 0 mm 3 mps 767 mmHg 46%
    12:00 +18°C° 0 mm 3 mps 767 mmHg 45%
    13:00 +18°C° 0 mm 4 mps 767 mmHg 45%
    14:00 +18°C° 0 mm 3 mps 767 mmHg 46%
    15:00 +18°C° 0 mm 3 mps 767 mmHg 47%
    16:00 +17°C° 0 mm 3 mps 767 mmHg 49%
    17:00 +16°C° 0 mm 3 mps 767 mmHg 51%
    18:00 +15°C° 0 mm 2 mps 767 mmHg 53%
    19:00 +13°C° 0 mm 2 mps 768 mmHg 55%
    20:00 +13°C° 0 mm 2 mps 768 mmHg 55%
    21:00 +12°C° 0 mm 2 mps 768 mmHg 55%
    22:00 +12°C° 0 mm 1 mps 769 mmHg 55%
    23:00 +12°C° 0 mm 2 mps 769 mmHg 54%

    7 April, Tuesday

    Time Temperature Precipitation Wind Pressure Humidity
    00:00 +12°C° 0 mm 2 mps 769 mmHg 53%
    01:00 +10°C° 0 mm 2 mps 768 mmHg 52%
    02:00 +10°C° 0 mm 2 mps 768 mmHg 51%
    03:00 +10°C° 0 mm 2 mps 768 mmHg 50%
    04:00 +9°C° 0 mm 3 mps 769 mmHg 49%
    05:00 +10°C° 0 mm 3 mps 769 mmHg 51%
    06:00 +10°C° 0 mm 4 mps 769 mmHg 52%
    07:00 +10°C° 0 mm 5 mps 769 mmHg 53%
    08:00 +13°C° 0 mm 4 mps 769 mmHg 46%
    09:00 +15°C° 0 mm 4 mps 769 mmHg 39%
    10:00 +17°C° 0 mm 3 mps 769 mmHg 32%
    11:00 +18°C° 0 mm 3 mps 769 mmHg 31%
    12:00 +19°C° 0 mm 3 mps 768 mmHg 30%
    13:00 +20°C° 0 mm 3 mps 768 mmHg 30%
    14:00 +19°C° 0 mm 4 mps 768 mmHg 33%
    15:00 +19°C° 0 mm 5 mps 768 mmHg 37%
    16:00 +17°C° 0 mm 6 mps 768 mmHg 41%
    17:00 +16°C° 0 mm 5 mps 768 mmHg 45%
    18:00 +14°C° 0 mm 5 mps 768 mmHg 49%
    19:00 +13°C° 0 mm 5 mps 768 mmHg 53%
    20:00 +12°C° 0 mm 5 mps 769 mmHg 49%
    21:00 +12°C° 0 mm 4 mps 769 mmHg 46%
    22:00 +11°C° 0 mm 4 mps 769 mmHg 42%
    23:00 +11°C° 0 mm 4 mps 769 mmHg 44%

    8 April, Wednesday

    Time Temperature Precipitation Wind Pressure Humidity
    00:00 +11°C° 0 mm 3 mps 769 mmHg 45%
    01:00 +10°C° 0 mm 3 mps 769 mmHg 46%
    02:00 +10°C° 0 mm 3 mps 769 mmHg 47%
    03:00 +10°C° 0 mm 3 mps 769 mmHg 48%
    04:00 +10°C° 0 mm 3 mps 769 mmHg 49%
    05:00 +10°C° 0 mm 3 mps 769 mmHg 51%
    06:00 +11°C° 0 mm 3 mps 769 mmHg 52%
    07:00 +13°C° 0 mm 2 mps 769 mmHg 54%
    08:00 +15°C° 0 mm 2 mps 769 mmHg 49%
    09:00 +16°C° 0 mm 2 mps 769 mmHg 44%
    10:00 +18°C° 0 mm 2 mps 769 mmHg 39%
    11:00 +19°C° 0 mm 3 mps 769 mmHg 39%
    12:00 +20°C° 0 mm 3 mps 769 mmHg 39%
    13:00 +20°C° 0 mm 4 mps 768 mmHg 39%
    14:00 +20°C° 0 mm 5 mps 768 mmHg 42%
    15:00 +19°C° 0 mm 5 mps 768 mmHg 46%
    16:00 +19°C° 0 mm 6 mps 767 mmHg 50%
    17:00 +16°C° 0 mm 6 mps 767 mmHg 57%
    18:00 +14°C° 0 mm 6 mps 767 mmHg 64%
    19:00 +11°C° 0 mm 6 mps 768 mmHg 71%
    20:00 +12°C° 0 mm 5 mps 768 mmHg 68%
    21:00 +12°C° 0 mm 5 mps 768 mmHg 65%
    22:00 +12°C° 0 mm 4 mps 768 mmHg 62%
    23:00 +12°C° 0 mm 4 mps 768 mmHg 59%
    Show more